Location: ???? ??
(36.0534°N, 43.5630°E)
Time: 15:52:44
(UTC+00:00)

SL-16 R/B - Pass Details

Date: 18 September 2019
Orbit: 840 x 849 km, 71.0° (Epoch: 14 October)

Event Time Altitude Azimuth Distance (km) Brightness Sun altitude
Rises 16:50:08 0° 354° (N) 3,412 5.7 -20.8°
Reaches altitude 10° 16:53:27 10° 13° (NNE) 2,474 4.7 -21.5°
Enters shadow 16:56:28 17° 45° (NE) 2,002 3.9 -22.0°
